Theta_e
321 318 318 321 324 326 328 330 330 332 331 331 331 332 331 332 334 334 336 334 334 334 334 333 333 332 330 330 330 328 328 328 330 329 328 327 331 333 335 338 338 335 338
318 317 317 320 323 325 327 329 330 331 332 333 334 335 335 334 334 335 335 334 332 334 333 333 331 332 329 329 328 328 325 327 329 325 321 318 325 330 332 337 337 334 336
317 317 317 320 323 324 327 329 331 332 333 335 334 334 332 332 331 332 333 333 332 333 334 332 331 331 329 327 328 329 329 326 328 331 324 318 317 323 332 332 335 333 335
317 317 318 320 322 325 328 330 331 332 334 334 333 333 330 328 331 331 333 332 332 332 333 332 332 330 329 328 328 329 332 331 323 328 334 333 330 320 320 329 332 334 335
317 317 318 320 323 325 327 330 332 334 334 334 334 332 330 331 332 332 330 332 334 333 332 333 331 331 329 330 330 330 330 331 330 331 330 332 332 331 324 319 322 329 332
316 317 319 321 323 326 327 329 332 333 333 333 333 331 329 329 329 330 331 330 331 333 333 333 333 332 330 329 329 331 331 331 332 329 329 328 326 326 324 322 322 322 326
316 316 318 320 322 324 326 329 331 331 332 332 331 329 329 329 329 329 330 326 327 332 333 334 334 332 332 331 331 331 331 331 332 332 327 324 327 332 332 326 321 321 323
316 316 318 320 321 324 327 328 330 330 331 331 330 330 329 331 331 330 331 330 330 333 334 334 334 333 332 331 332 330 331 332 331 331 331 327 324 326 334 326 322 320 319
316 316 318 320 322 324 327 328 329 330 330 331 331 330 330 330 330 330 333 333 334 334 333 334 332 332 331 331 332 330 331 328 327 333 330 326 326 332 335 329 326 322 316
316 316 318 320 323 326 328 329 330 329 330 331 331 330 332 332 330 332 331 332 334 333 333 333 332 332 331 331 332 330 332 330 330 331 332 327 330 332 330 326 324 325 323
316 317 318 320 323 326 326 327 328 328 329 330 331 331 332 331 330 331 332 332 334 333 332 332 332 332 331 331 331 331 330 330 330 331 330 325 330 327 326 331 333 331 329
317 318 319 320 321 324 325 326 327 327 329 330 330 331 331 329 330 331 332 332 332 332 333 332 331 330 330 330 329 328 327 327 326 325 328 323 330 331 327 326 329 329 331
317 318 319 319 320 323 323 325 327 327 328 328 330 331 330 329 330 330 331 333 333 332 331 332 330 330 329 328 328 328 327 325 326 329 328 324 328 328 330 330 331 329 328
317 318 318 319 321 322 322 324 326 327 328 328 329 330 331 330 330 331 332 332 332 331 331 332 331 330 327 326 326 325 324 324 325 328 327 328 329 330 331 329 329 330 326
316 317 318 319 321 321 322 323 325 326 328 327 328 330 331 331 330 331 331 333 332 331 329 329 327 330 325 324 324 324 324 325 324 326 326 327 327 322 326 328 330 328 325
317 318 319 320 320 321 322 323 324 326 327 326 327 329 329 329 331 331 331 331 332 329 328 327 327 328 324 306 310 321 324 325 325 325 325 327 321 316 310 313 315 321 323
318 318 319 320 321 322 323 323 324 326 325 325 327 328 329 329 329 329 328 330 331 331 327 326 329 325 322 304 306 312 327 326 325 324 324 323 321 322 322 310 311 311 310
319 320 320 321 323 323 323 325 324 325 324 324 325 327 328 329 330 327 328 328 330 330 329 323 323 323 317 302 304 310 328 326 325 324 324 322 320 320 321 323 320 320 319
322 322 323 323 324 323 324 323 323 324 323 323 324 326 328 329 330 326 327 327 328 329 329 327 319 320 313 301 303 316 326 325 324 323 323 323 317 302 306 320 317 318 316
323 322 323 323 323 323 324 323 322 323 322 323 324 326 328 329 330 329 327 327 329 327 328 327 325 314 315 299 304 317 325 325 323 323 321 309 316 300 305 323 321 321 318
323 324 323 322 323 324 323 322 322 322 324 325 325 326 328 330 331 330 327 327 327 326 326 327 327 325 322 315 300 306 326 324 324 323 324 325 300 299 302 308 323 318 319
321 322 321 321 323 323 323 322 322 324 325 325 324 325 327 329 329 329 326 326 327 325 324 324 326 326 321 307 301 301 309 315 325 326 326 324 300 299 299 308 295 298 308
321 322 321 321 322 323 324 323 324 324 324 324 324 325 327 328 329 329 325 323 325 322 322 322 322 322 323 322 300 299 300 304 326 329 317 299 297 296 300 295 296 302 318
320 321 321 320 319 322 324 326 325 324 324 324 324 325 324 326 329 328 326 324 322 321 319 320 321 322 322 325 324 321 320 305 319 308 316 306 304 298 307 309 305 319 320
321 322 321 321 320 321 323 325 324 323 324 325 324 324 323 324 327 328 327 325 327 322 321 320 321 322 321 322 317 319 326 328 318 317 319 321 320 318 317 319 318 318 318
321 320 322 322 321 321 322 324 323 324 326 323 323 322 322 322 324 325 324 298 305 303 301 303 314 321 307 297 296 299 298 296 297 320 322 322 321 317 317 317 316 316 312
Wind_Speed
16 7 2 8 12 13 16 17 16 13 10 6 4 4 5 5 5 5 6 6 6 6 8 6 6 6 7 6 7 7 8 5 6 5 4 2 1 1 3 3 2 2 1
10 1 3 8 12 14 16 17 15 13 9 6 4 2 2 3 3 3 4 5 5 5 7 6 6 6 5 6 8 9 6 3 7 4 5 5 4 4 3 3 3 3 2
10 6 8 10 12 15 17 15 14 12 9 7 4 3 3 3 3 3 3 2 4 3 5 5 5 5 6 6 8 8 8 5 6 6 2 4 3 6 4 4 4 5 3
3 7 10 12 14 16 14 14 13 11 9 8 5 5 3 2 1 2 1 3 3 4 5 5 5 6 6 7 8 7 5 7 7 5 2 2 3 5 5 3 4 4 5
4 9 11 14 16 16 14 12 12 11 9 7 5 4 4 2 1 2 3 3 2 4 4 5 5 6 6 7 8 7 5 3 4 4 3 1 2 3 4 5 3 3 3
7 10 11 15 16 14 13 12 12 10 9 7 5 5 4 3 1 1 1 2 2 3 5 5 5 6 6 7 8 7 6 4 4 3 4 1 1 3 4 6 5 3 2
9 12 16 17 16 15 14 12 12 11 8 7 5 5 4 2 1 2 1 0 2 3 4 5 6 6 6 7 7 7 5 4 4 6 5 2 1 2 3 7 3 2 2
10 13 18 17 16 15 14 12 11 10 9 6 5 4 4 1 0 1 0 1 1 1 3 5 5 6 7 8 7 5 4 4 4 6 6 6 3 2 6 6 6 5 2
13 16 17 16 15 14 14 12 11 10 8 6 5 4 3 1 1 2 2 0 1 1 4 5 6 6 7 7 8 5 6 4 4 5 7 7 5 5 4 5 2 2 4
14 16 17 16 14 14 12 10 10 10 9 6 5 4 3 2 3 2 3 3 2 4 5 6 6 6 7 7 6 5 6 7 5 4 7 7 5 6 5 5 3 1 3
16 17 17 15 14 13 12 11 9 9 8 6 5 4 3 3 4 4 3 4 3 4 5 7 7 8 8 7 6 6 7 7 7 6 7 6 9 7 6 7 6 3 4
16 17 18 16 14 14 13 11 10 8 8 7 5 4 4 4 5 4 4 4 5 5 5 6 6 7 9 8 7 8 8 7 6 6 5 7 7 9 7 3 6 6 6
16 16 17 15 15 14 13 12 10 8 7 7 6 5 5 4 6 4 4 4 6 5 5 6 8 9 9 9 8 8 8 7 5 6 7 5 6 8 7 7 7 7 6
16 16 16 16 15 14 14 12 10 8 8 7 7 5 5 5 6 5 5 4 5 6 6 6 7 8 8 8 8 8 9 8 6 6 7 7 7 8 9 6 7 8 8
17 17 18 16 15 14 13 11 10 10 9 8 8 6 5 6 7 6 6 6 6 6 6 7 6 8 8 7 9 8 9 9 8 7 7 6 6 7 7 6 8 8 6
17 18 18 18 17 16 14 12 11 10 10 9 8 7 6 7 6 6 5 5 6 6 7 6 7 7 5 8 10 10 8 9 9 9 7 8 10 9 10 10 10 7 9
18 20 21 19 17 16 14 13 12 11 10 9 9 8 7 7 6 6 5 6 6 7 6 4 6 8 8 9 9 10 8 8 8 9 8 7 6 8 10 12 14 13 13
19 17 17 17 16 15 15 13 12 12 11 10 10 9 9 7 7 8 7 7 6 7 6 4 5 9 5 8 9 9 10 8 9 9 8 8 7 7 8 10 9 8 8
20 19 19 19 17 17 15 14 13 13 12 12 11 10 10 9 8 9 7 5 7 6 6 6 5 8 5 7 9 9 10 9 9 8 6 8 9 6 8 8 8 9 8
14 17 18 17 17 17 16 16 15 14 14 13 12 11 11 9 9 9 9 6 6 7 6 6 10 10 7 7 9 8 7 11 7 6 5 9 9 8 7 7 9 10 8
18 18 19 19 18 18 17 17 16 16 14 13 13 12 11 10 9 9 8 7 7 8 7 8 8 8 9 6 7 8 8 9 8 7 7 5 7 9 8 7 6 5 10
20 20 18 17 17 18 18 18 17 16 14 13 13 13 12 9 8 10 8 8 8 8 8 8 7 6 5 5 7 8 3 10 7 9 7 6 7 8 7 4 10 12 10
18 19 18 18 17 19 19 19 17 16 16 14 14 14 12 11 10 10 9 8 8 7 7 7 7 6 5 5 6 6 8 8 8 6 7 11 9 9 8 8 10 7 6
16 18 19 19 19 19 19 18 19 18 17 16 14 13 13 12 10 9 9 8 8 7 7 7 7 7 6 6 7 6 6 7 6 8 6 7 8 9 8 7 6 5 5
16 17 19 18 20 20 20 18 18 19 17 15 14 13 12 13 11 10 9 9 9 8 8 8 7 8 7 7 8 9 8 8 7 8 6 5 4 4 4 4 5 5 6
16 16 17 16 18 20 20 19 19 20 17 15 13 12 12 12 10 10 7 7 4 10 5 8 8 7 4 13 12 9 9 13 15 6 7 6 6 6 6 6 7 7 7
Wind_Direction
281 314 255 180 171 167 159 158 156 158 154 155 174 213 230 226 230 237 236 244 252 249 235 232 217 208 216 217 209 211 192 189 171 158 153 109 212 210 196 183 125 81 203
283 302 154 168 170 161 160 149 153 156 161 162 171 190 217 240 263 253 246 249 268 253 221 208 209 203 201 194 191 191 175 165 176 173 153 164 142 112 99 144 121 95 112
272 182 160 165 155 156 154 150 150 154 161 165 147 157 218 222 230 225 224 263 271 219 199 198 214 204 196 188 188 193 190 161 179 203 156 165 176 153 150 148 117 113 125
160 158 154 151 157 155 150 145 149 154 160 163 167 202 237 239 202 274 295 280 255 210 194 212 198 192 190 182 184 196 196 160 161 174 193 86 144 180 157 126 120 145 139
153 160 155 152 158 149 150 149 151 155 155 168 192 198 202 187 189 243 276 278 251 223 207 199 167 178 192 189 184 187 181 193 154 181 160 137 168 146 166 132 112 98 131
123 137 142 147 152 149 147 152 154 155 163 175 182 194 171 158 229 266 267 301 241 210 205 199 180 177 183 186 186 186 187 191 175 172 100 85 33 151 166 138 111 141 110
144 144 151 157 152 154 155 157 159 160 168 181 175 157 154 168 274 308 310 322 241 188 185 187 178 181 185 181 185 179 174 188 188 155 125 99 185 270 166 130 123 121 95
154 159 158 158 157 159 161 161 161 160 176 171 156 149 161 171 294 354 120 142 219 152 166 171 168 173 178 172 171 168 159 157 148 161 151 146 165 249 153 136 141 119 98
159 161 160 162 162 167 165 162 165 167 169 164 150 163 168 176 72 105 108 90 34 116 144 148 155 158 170 164 158 161 144 131 138 115 121 143 177 188 104 111 84 80 133
159 163 168 165 170 169 163 166 171 167 166 156 157 165 159 155 109 107 81 77 76 109 136 148 150 141 143 145 156 144 137 143 140 141 148 144 153 137 112 121 110 169 165
168 166 170 167 171 167 166 173 166 169 165 154 157 158 147 129 123 114 90 83 108 114 139 160 155 143 137 133 132 132 133 138 135 144 148 130 155 137 150 165 179 139 104
164 168 169 166 172 173 174 175 172 177 166 154 161 162 138 128 119 125 96 89 103 100 126 150 148 141 133 130 135 130 136 139 144 133 145 136 151 139 127 128 132 124 112
159 168 168 173 176 179 181 176 177 179 165 161 164 161 142 127 112 115 103 96 115 107 120 139 143 141 130 134 138 138 136 138 147 142 126 148 154 130 151 153 130 126 113
163 167 172 178 180 184 182 177 179 180 171 165 171 169 145 123 111 111 107 88 106 117 121 126 130 130 130 132 134 137 133 134 138 132 136 158 152 151 148 150 145 139 128
170 174 176 179 183 185 184 177 179 179 177 167 172 172 154 134 116 112 101 95 93 104 114 123 122 134 130 135 135 136 134 131 130 127 136 150 134 95 121 143 145 135 125
179 176 181 181 185 185 185 175 176 180 177 171 174 165 171 154 137 124 119 103 100 113 125 126 135 137 117 125 124 136 137 139 136 126 123 124 112 97 92 97 88 117 139
180 182 184 184 184 185 182 178 177 174 181 177 169 169 172 164 148 123 128 119 112 119 100 96 124 116 122 127 126 129 125 122 118 116 116 107 112 117 102 99 92 80 75
185 182 179 184 185 183 180 176 173 176 181 183 173 173 175 168 151 133 129 119 125 127 122 112 105 124 129 138 125 124 124 116 113 104 100 98 84 102 107 102 92 86 76
181 181 178 178 176 179 176 174 175 179 181 188 181 178 177 172 163 143 137 125 133 133 117 115 117 124 131 132 132 139 126 119 113 104 96 102 94 104 105 104 106 106 89
196 174 171 172 175 179 172 176 176 181 187 187 187 178 182 178 176 151 143 140 136 126 123 108 117 115 134 159 136 129 130 122 116 105 103 81 107 101 113 129 129 119 124
179 168 167 173 178 171 173 182 178 187 190 184 185 179 180 183 174 156 146 141 140 126 123 125 123 134 143 161 158 151 144 140 145 142 147 126 106 101 100 123 138 127 140
170 174 169 172 174 173 175 183 187 186 182 180 182 182 178 183 170 163 149 146 146 137 130 130 135 132 137 138 161 184 172 155 156 157 160 145 126 102 109 103 109 114 134
175 176 173 168 173 178 181 182 188 178 176 178 182 180 179 179 174 170 161 157 162 160 155 151 140 144 162 161 136 157 160 180 171 176 114 107 108 116 101 103 122 133 126
193 173 169 175 177 182 185 192 173 179 178 178 179 178 178 179 179 179 175 174 176 174 173 169 156 147 152 156 157 157 158 137 134 131 105 94 90 73 96 126 166 184 171
188 181 176 181 183 180 185 186 179 175 179 179 175 176 181 183 181 191 188 190 191 188 179 179 173 167 170 168 160 164 168 172 145 131 143 157 169 163 158 154 162 164 163
187 193 183 178 179 180 183 183 182 178 171 177 176 179 179 182 185 187 186 42 355 187 189 169 181 184 94 143 160 159 132 128 151 167 177 185 186 190 183 178 173 181 185